Mt. Pocono, PA

4:12 PM EST on December 11, 2019 (GMT -0500)
Pocono Mountains Municipal

Weather History for KMPO - September, 2019

Change the Weather History Date:

Tuesday, September 10, 2019

  Actual Average Record
Temperature  
Mean Temperature 68 °F 61 °F  
Max Temperature 73 °F 70 °F 89 °F (1983)
Min Temperature 61 °F 52 °F 31 °F (1986)
Degree Days  
Heating Degree Days 0 5  
Month to date heating degree days 32 37  
Since 1 July heating degree days 73 100  
Cooling Degree Days 2 1  
Month to date cooling degree days 10 10  
Year to date cooling degree days 328 306  
Growing Degree Days 18 (Base 50)    
Moisture  
Dew Point 61 °F    
Average Humidity 87    
Maximum Humidity 100    
Minimum Humidity 68    
Precipitation  
Precipitation T in 0.19 in 2.30 in (1950)
Month to date precipitation 0.72 1.57  
Year to date precipitation 35.65 32.55  
Sea Level Pressure  
Sea Level Pressure 30.33 in    
Wind  
Wind Speed 5 mph ()    
Max Wind Speed 15 mph    
Max Gust Speed 21 mph    
Visibility 9.8 miles    
Events Rain    
T = Trace of Precipitation, MM = Missing Value Source: Averaged Metar Reports

Daily Weather History Graph

Daily Weather History Graph

Search for Another Location

Airport or City:

Astronomy

Sep. 10, 2019 Rise Set
Actual Time 6:36 AM EDT 7:19 PM EDT
Civil Twilight 6:08 AM EDT 7:47 PM EDT
Nautical Twilight 5:35 AM EDT 8:20 PM EDT
Astronomical Twilight 5:01 AM EDT 8:54 PM EDT
Moon 5:56 PM EDT (9/10) 2:58 AM EDT (9/10)
Length of Visible Light 13h 38m
Length of Day
12h 42m
Waxing Gibbous, 89% of the Moon is Illuminated
Sep 10
Waxing Gibbous
Sep 14
Full
Sep 21
Last Quarter
Sep 28
New
Oct 5
First Quarter

Hourly Weather History & Observations

Time (EDT) Temp. Dew Point Humidity Pressure Visibility Wind Dir Wind Speed Gust Speed Precip Events Conditions
12:53 AM 62.1 °F 62.1 °F 100% 30.30 in 8.0 mi SSE 3.5 mph - N/A   Overcast
1:53 AM 62.1 °F 62.1 °F 100% 30.31 in 10.0 mi South 5.8 mph - N/A   Overcast
2:53 AM 62.1 °F 62.1 °F 100% 30.31 in 6.0 mi South 4.6 mph - N/A   Overcast
3:48 AM 62.6 °F 62.6 °F 100% 30.33 in 10.0 mi SSW 5.8 mph - N/A   Overcast
3:53 AM 62.1 °F 61.0 °F 96% 30.32 in 10.0 mi SSW 4.6 mph - N/A   Overcast
4:04 AM 62.1 °F 61.0 °F 96% 30.33 in 10.0 mi South 5.8 mph - N/A   Overcast
4:24 AM 62.1 °F 61.0 °F 96% 30.34 in 10.0 mi SW 3.5 mph - N/A   Overcast
4:53 AM 62.1 °F 61.0 °F 96% 30.32 in 10.0 mi Calm Calm - N/A   Overcast
5:53 AM 62.1 °F 61.0 °F 96% 30.33 in 10.0 mi SE 3.5 mph - N/A   Overcast
6:17 AM 61.0 °F 61.0 °F 100% 30.35 in 10.0 mi Calm Calm - N/A   Overcast
6:41 AM 61.0 °F 61.0 °F 100% 30.36 in 10.0 mi SE 3.5 mph - 0.00 in Rain Light Rain
6:53 AM 61.0 °F 61.0 °F 100% 30.35 in 10.0 mi SSE 4.6 mph - 0.00 in   Overcast
7:25 AM 61.0 °F 61.0 °F 100% 30.37 in 10.0 mi SE 4.6 mph - N/A   Mostly Cloudy
7:45 AM 62.1 °F 62.1 °F 100% 30.37 in 10.0 mi South 3.5 mph - N/A   Overcast
7:53 AM 62.1 °F 62.1 °F 100% 30.36 in 10.0 mi SSE 6.9 mph - N/A   Overcast
8:06 AM 62.1 °F 61.0 °F 96% 30.37 in 10.0 mi South 5.8 mph - N/A   Overcast
8:17 AM 62.1 °F 61.0 °F 96% 30.37 in 10.0 mi SSE 8.1 mph - N/A   Overcast
8:33 AM 63.0 °F 61.0 °F 93% 30.38 in 10.0 mi South 5.8 mph - N/A   Overcast
8:53 AM 63.0 °F 61.0 °F 93% 30.38 in 10.0 mi SSW 5.8 mph - N/A   Overcast
9:28 AM 64.0 °F 61.0 °F 90% 30.38 in 10.0 mi South 9.2 mph - N/A   Mostly Cloudy
9:53 AM 66.0 °F 61.0 °F 84% 30.37 in 10.0 mi South 8.1 mph - N/A   Mostly Cloudy
10:20 AM 66.9 °F 61.0 °F 81% 30.38 in 10.0 mi SW 5.8 mph - N/A   Scattered Clouds
10:53 AM 66.9 °F 57.0 °F 70% 30.37 in 10.0 mi SSW 10.4 mph - N/A   Overcast
11:53 AM 69.1 °F 59.0 °F 70% 30.36 in 10.0 mi SSW 10.4 mph - N/A   Overcast
12:53 PM 70.0 °F 60.1 °F 71% 30.34 in 10.0 mi South 10.4 mph - N/A   Scattered Clouds
1:05 PM 70.0 °F 60.1 °F 71% 30.36 in 10.0 mi South 9.2 mph - N/A   Mostly Cloudy
1:53 PM 71.1 °F 61.0 °F 70% 30.33 in 10.0 mi South 10.4 mph 20.7 mph N/A   Overcast
2:44 PM 71.1 °F 61.0 °F 70% 30.34 in 10.0 mi South 10.4 mph - N/A   Overcast
2:51 PM 71.6 °F 60.8 °F 69% 30.34 in 10.0 mi South 8.1 mph - N/A   Overcast
2:53 PM 72.0 °F 62.1 °F 71% 30.32 in 10.0 mi South 9.2 mph - N/A   Overcast
3:53 PM 71.1 °F 61.0 °F 70% 30.32 in 10.0 mi South 8.1 mph - N/A   Overcast
4:53 PM 72.0 °F 62.1 °F 71% 30.30 in 10.0 mi South 8.1 mph - N/A   Partly Cloudy
5:53 PM 71.1 °F 62.1 °F 73% 30.30 in 10.0 mi South 8.1 mph - N/A   Scattered Clouds
6:53 PM 69.1 °F 61.0 °F 75% 30.30 in 10.0 mi South 4.6 mph - N/A   Partly Cloudy
7:53 PM 66.9 °F 61.0 °F 81% 30.29 in 10.0 mi SSW 3.5 mph - N/A   Clear
8:53 PM 66.0 °F 61.0 °F 84% 30.29 in 10.0 mi South 3.5 mph - N/A   Clear
9:53 PM 66.0 °F 62.1 °F 87% 30.28 in 10.0 mi South 5.8 mph - N/A   Clear
10:53 PM 64.9 °F 63.0 °F 93% 30.27 in 10.0 mi SSW 4.6 mph - N/A   Clear
11:53 PM 64.9 °F 63.0 °F 93% 30.27 in 10.0 mi SSW 9.2 mph - N/A   Clear